Year,Month,Day,Hour,Minute,Value (Times are PST for temperature in C)
2016,06,20,07,14,10.70
2016,06,20,07,15,10.70
2016,06,20,07,16,10.80
2016,06,20,07,17,10.80
2016,06,20,07,18,10.80
2016,06,20,07,19,10.80
2016,06,20,07,20,10.90
2016,06,20,07,21,10.90
2016,06,20,07,22,11.00
2016,06,20,07,23,11.00
2016,06,20,07,24,11.10
2016,06,20,07,25,11.10
2016,06,20,07,26,11.10
2016,06,20,07,27,11.10
2016,06,20,07,28,11.20
2016,06,20,07,29,11.20
2016,06,20,07,30,11.20
2016,06,20,07,31,11.30
2016,06,20,07,32,11.30
2016,06,20,07,33,11.30
2016,06,20,07,34,11.40
2016,06,20,07,35,11.40
2016,06,20,07,36,11.50
2016,06,20,07,37,11.60
2016,06,20,07,38,11.60
2016,06,20,07,39,11.70
2016,06,20,07,40,11.70
2016,06,20,07,41,11.80
2016,06,20,07,42,11.80
2016,06,20,07,43,11.90
2016,06,20,07,44,11.90
2016,06,20,07,45,12.10
2016,06,20,07,46,12.10
2016,06,20,07,47,12.10
2016,06,20,07,48,12.20
2016,06,20,07,49,12.20
2016,06,20,07,50,12.30
2016,06,20,07,51,12.30
2016,06,20,07,52,12.40
2016,06,20,07,53,12.40
2016,06,20,07,54,12.50
2016,06,20,07,55,12.60
2016,06,20,07,56,12.70
2016,06,20,07,57,12.80
2016,06,20,07,58,12.90
2016,06,20,08,00,13.10
2016,06,20,08,01,13.20
2016,06,20,08,02,13.20
2016,06,20,08,03,13.30
2016,06,20,08,04,13.30
2016,06,20,08,05,13.30
2016,06,20,08,06,13.40
2016,06,20,08,07,13.40
2016,06,20,08,08,13.50
2016,06,20,08,09,13.60
2016,06,20,08,10,13.60
2016,06,20,08,11,13.70
2016,06,20,08,12,13.70
2016,06,20,08,13,13.80
2016,06,20,08,14,13.80
2016,06,20,08,15,13.90
2016,06,20,08,16,14.00
2016,06,20,08,17,14.00
2016,06,20,08,18,14.00
2016,06,20,08,19,13.90
2016,06,20,08,20,13.90
2016,06,20,08,21,13.80
2016,06,20,08,22,13.80
2016,06,20,08,23,13.80
2016,06,20,08,24,13.90
2016,06,20,08,25,13.90
2016,06,20,08,26,14.00
2016,06,20,08,27,14.00
2016,06,20,08,28,14.10
2016,06,20,08,29,14.10
2016,06,20,08,30,14.10
2016,06,20,08,31,14.10
2016,06,20,08,32,14.10
2016,06,20,08,33,14.10
2016,06,20,08,34,14.10
2016,06,20,08,35,14.10
2016,06,20,08,36,14.10
2016,06,20,08,37,14.10
2016,06,20,08,38,14.10
2016,06,20,08,39,14.10
2016,06,20,08,40,14.20
2016,06,20,08,41,14.20
2016,06,20,08,42,14.20
2016,06,20,08,43,14.20
2016,06,20,08,44,14.30
2016,06,20,08,45,14.40
2016,06,20,08,46,14.40
2016,06,20,08,47,14.50
2016,06,20,08,48,14.60
2016,06,20,08,49,14.60
2016,06,20,08,50,14.60
2016,06,20,08,51,14.60
2016,06,20,08,52,14.60
2016,06,20,08,53,14.60
2016,06,20,08,54,14.70
2016,06,20,08,55,14.70
2016,06,20,08,56,14.60
2016,06,20,08,57,14.60
2016,06,20,08,58,14.60
2016,06,20,08,59,14.70
2016,06,20,09,00,14.70
2016,06,20,09,01,14.70
2016,06,20,09,02,14.80
2016,06,20,09,03,14.80
2016,06,20,09,04,14.90
2016,06,20,09,05,15.10
2016,06,20,09,06,15.10
2016,06,20,09,07,15.20
2016,06,20,09,08,15.20
2016,06,20,09,09,15.20
2016,06,20,09,10,15.30
2016,06,20,09,11,15.40
2016,06,20,09,12,15.50
2016,06,20,09,13,15.70
2016,06,20,09,14,15.80
2016,06,20,09,15,15.90
2016,06,20,09,16,16.00
2016,06,20,09,17,16.10
2016,06,20,09,18,16.30
2016,06,20,09,19,16.40
2016,06,20,09,20,16.50
2016,06,20,09,21,16.60
2016,06,20,09,22,16.70
2016,06,20,09,23,16.80
2016,06,20,09,24,16.80
2016,06,20,09,25,16.90
2016,06,20,09,26,16.90
2016,06,20,09,27,17.10
2016,06,20,09,28,17.10
2016,06,20,09,29,17.20
2016,06,20,09,30,17.20
2016,06,20,09,31,17.20
2016,06,20,09,32,17.30
2016,06,20,09,33,17.30
2016,06,20,09,34,17.40
2016,06,20,09,35,17.40
2016,06,20,09,36,17.40
2016,06,20,09,37,17.50
2016,06,20,09,38,17.60
2016,06,20,09,39,17.60
2016,06,20,09,40,17.70
2016,06,20,09,41,17.80
2016,06,20,09,42,17.90
2016,06,20,09,43,17.90
2016,06,20,09,44,18.00
2016,06,20,09,45,18.00
2016,06,20,09,46,18.10
2016,06,20,09,47,18.10
2016,06,20,09,48,18.20
2016,06,20,09,49,18.30
2016,06,20,09,50,18.30
2016,06,20,09,51,18.40
2016,06,20,09,52,18.40
2016,06,20,09,53,18.40
2016,06,20,09,54,18.40
2016,06,20,09,55,18.50
2016,06,20,09,56,18.40
2016,06,20,09,57,18.40
2016,06,20,09,58,18.40
2016,06,20,09,59,18.40
2016,06,20,10,00,18.40
2016,06,20,10,01,18.40
2016,06,20,10,02,18.40
2016,06,20,10,03,18.50
2016,06,20,10,04,18.60
2016,06,20,10,05,18.70
2016,06,20,10,06,18.90
2016,06,20,10,07,19.00
2016,06,20,10,08,19.10
2016,06,20,10,09,19.20
2016,06,20,10,10,19.30
2016,06,20,10,11,19.40
2016,06,20,10,12,19.50
2016,06,20,10,13,19.60
2016,06,20,10,14,19.70
2016,06,20,10,15,19.80
2016,06,20,10,16,19.80
2016,06,20,10,17,19.80
2016,06,20,10,18,19.80
2016,06,20,10,19,19.90
2016,06,20,10,20,19.90
2016,06,20,10,21,20.00
2016,06,20,10,22,20.00
2016,06,20,10,23,20.10
2016,06,20,10,24,20.10
2016,06,20,10,25,20.10
2016,06,20,10,26,20.10
2016,06,20,10,27,20.10
2016,06,20,10,28,20.00
2016,06,20,10,29,20.10
2016,06,20,10,30,20.10
2016,06,20,10,31,20.10
2016,06,20,10,32,20.10
2016,06,20,10,33,20.10
2016,06,20,10,34,20.10
2016,06,20,10,35,20.10
2016,06,20,10,36,20.20
2016,06,20,10,37,20.20
2016,06,20,10,38,20.30
2016,06,20,10,39,20.30
2016,06,20,10,40,20.40
2016,06,20,10,41,20.40
2016,06,20,10,42,20.50
2016,06,20,10,43,20.60
2016,06,20,10,44,20.60
2016,06,20,10,45,20.60
2016,06,20,10,46,20.70
2016,06,20,10,47,20.70
2016,06,20,10,48,20.70
2016,06,20,10,49,20.80
2016,06,20,10,50,20.90
2016,06,20,10,51,20.90
2016,06,20,10,52,21.10
2016,06,20,10,53,21.10
2016,06,20,10,54,21.10
2016,06,20,10,55,21.10
2016,06,20,10,56,21.10
2016,06,20,10,57,21.10
2016,06,20,10,58,21.20
2016,06,20,10,59,21.10
2016,06,20,11,00,21.10
2016,06,20,11,01,21.10
2016,06,20,11,02,21.10
2016,06,20,11,03,21.10
2016,06,20,11,04,21.10
2016,06,20,11,05,21.10
2016,06,20,11,06,21.10
2016,06,20,11,07,21.10
2016,06,20,11,08,21.10
2016,06,20,11,09,21.00
2016,06,20,11,10,21.00
2016,06,20,11,11,20.90
2016,06,20,11,12,20.90
2016,06,20,11,13,20.90
2016,06,20,11,14,20.90
2016,06,20,11,15,20.90
2016,06,20,11,16,20.90
2016,06,20,11,17,20.90
2016,06,20,11,18,20.90
2016,06,20,11,19,21.10
2016,06,20,11,20,21.10
2016,06,20,11,21,21.20
2016,06,20,11,22,21.30
2016,06,20,11,23,21.30
2016,06,20,11,24,21.40
2016,06,20,11,25,21.40
2016,06,20,11,26,21.50
2016,06,20,11,27,21.60
2016,06,20,11,28,21.70
2016,06,20,11,29,21.70
2016,06,20,11,30,21.80
2016,06,20,11,31,21.90
2016,06,20,11,32,22.10
2016,06,20,11,33,22.20
2016,06,20,11,34,22.30
2016,06,20,11,35,22.40
2016,06,20,11,36,22.60
2016,06,20,11,37,22.60
2016,06,20,11,38,22.70
2016,06,20,11,39,22.70
2016,06,20,11,40,22.70
2016,06,20,11,41,22.80
2016,06,20,11,42,22.80
2016,06,20,11,43,22.80
2016,06,20,11,44,22.80
2016,06,20,11,45,22.80
2016,06,20,11,46,22.80
2016,06,20,11,47,22.90
2016,06,20,11,48,22.90
2016,06,20,11,49,22.80
2016,06,20,11,50,22.70
2016,06,20,11,51,22.70
2016,06,20,11,52,22.60
2016,06,20,11,53,22.60
2016,06,20,11,54,22.60
2016,06,20,11,55,22.60
2016,06,20,11,56,22.70
2016,06,20,11,57,22.70
2016,06,20,11,58,22.80
2016,06,20,11,59,22.80
2016,06,20,12,00,22.80
2016,06,20,12,01,22.80
2016,06,20,12,02,22.80
2016,06,20,12,03,22.90
2016,06,20,12,04,23.00
2016,06,20,12,05,23.10
2016,06,20,12,06,23.20
2016,06,20,12,07,23.20
2016,06,20,12,08,23.30
2016,06,20,12,09,23.30
2016,06,20,12,10,23.20
2016,06,20,12,12,23.10
2016,06,20,12,13,23.10
2016,06,20,12,14,23.10
2016,06,20,12,15,23.10
2016,06,20,12,16,23.10
2016,06,20,12,17,23.10
2016,06,20,12,18,23.10
2016,06,20,12,19,23.10
2016,06,20,12,20,23.10
2016,06,20,12,21,23.10
2016,06,20,12,22,23.20
2016,06,20,12,23,23.20
2016,06,20,12,24,23.30
2016,06,20,12,25,23.40
2016,06,20,12,26,23.40
2016,06,20,12,27,23.60
2016,06,20,12,28,23.70
2016,06,20,12,29,23.80
2016,06,20,12,30,23.80
2016,06,20,12,31,23.90
2016,06,20,12,32,24.00
2016,06,20,12,33,24.10
2016,06,20,12,34,24.10
2016,06,20,12,35,24.10
2016,06,20,12,36,24.20
2016,06,20,12,37,24.20
2016,06,20,12,38,24.20
2016,06,20,12,39,24.10
2016,06,20,12,40,24.00
2016,06,20,12,41,23.90
2016,06,20,12,43,23.90
2016,06,20,12,44,23.90
2016,06,20,12,45,23.90
2016,06,20,12,46,23.90
2016,06,20,12,47,23.90
2016,06,20,12,49,24.10
2016,06,20,12,51,24.20
2016,06,20,12,52,24.30
2016,06,20,12,53,24.30
2016,06,20,12,54,24.30
2016,06,20,12,55,24.20
2016,06,20,12,56,24.20
2016,06,20,12,57,24.10
2016,06,20,12,58,24.10
2016,06,20,12,59,24.10
2016,06,20,13,00,24.10
2016,06,20,13,01,24.10
2016,06,20,13,02,24.20
2016,06,20,13,03,24.30
2016,06,20,13,04,24.30
2016,06,20,13,05,24.40
2016,06,20,13,06,24.50
2016,06,20,13,07,24.60
2016,06,20,13,08,24.70
2016,06,20,13,09,24.70
2016,06,20,13,10,24.80
2016,06,20,13,11,24.80
2016,06,20,13,12,24.80
2016,06,20,13,13,24.80
2016,06,20,13,14,24.90
2016,06,20,13,15,24.90
2016,06,20,13,16,24.90
2016,06,20,13,17,24.80
2016,06,20,13,18,24.80
2016,06,20,13,19,24.80
2016,06,20,13,20,24.80
2016,06,20,13,21,24.80
2016,06,20,13,22,24.80
2016,06,20,13,23,24.80
2016,06,20,13,24,24.80
2016,06,20,13,25,24.90
2016,06,20,13,26,24.90
2016,06,20,13,27,24.90
2016,06,20,13,28,24.90
2016,06,20,13,29,24.90
2016,06,20,13,30,25.00
2016,06,20,13,31,25.00
2016,06,20,13,32,25.10
2016,06,20,13,33,25.10
2016,06,20,13,34,25.10
2016,06,20,13,35,25.10
2016,06,20,13,36,25.20
2016,06,20,13,37,25.20
2016,06,20,13,38,25.20
2016,06,20,13,39,25.10
2016,06,20,13,40,25.10
2016,06,20,13,41,25.10
2016,06,20,13,42,25.00
2016,06,20,13,43,24.90
2016,06,20,13,44,24.90
2016,06,20,13,45,24.90
2016,06,20,13,47,24.90
2016,06,20,13,48,25.00
2016,06,20,13,49,25.10
2016,06,20,13,50,25.10
2016,06,20,13,51,25.10
2016,06,20,13,52,25.20
2016,06,20,13,53,25.20
2016,06,20,13,54,25.20
2016,06,20,13,55,25.30
2016,06,20,13,56,25.30
2016,06,20,13,57,25.40
2016,06,20,13,58,25.40
2016,06,20,13,59,25.60
2016,06,20,14,00,25.60
2016,06,20,14,01,25.70
2016,06,20,14,02,25.80
2016,06,20,14,03,25.80
2016,06,20,14,04,25.90
2016,06,20,14,05,25.90
2016,06,20,14,06,25.90
2016,06,20,14,07,25.90
2016,06,20,14,08,25.90
2016,06,20,14,09,25.90
2016,06,20,14,10,26.00
2016,06,20,14,11,26.00
2016,06,20,14,12,26.10
2016,06,20,14,13,26.10
2016,06,20,14,14,26.10
2016,06,20,14,15,26.20
2016,06,20,14,16,26.20
2016,06,20,14,17,26.30
2016,06,20,14,18,26.40
2016,06,20,14,19,26.50
2016,06,20,14,20,26.60
2016,06,20,14,21,26.70
2016,06,20,14,22,26.70
2016,06,20,14,23,26.70
2016,06,20,14,24,26.70
2016,06,20,14,25,26.70
2016,06,20,14,26,26.60
2016,06,20,14,27,26.70
2016,06,20,14,28,26.70
2016,06,20,14,29,26.70
2016,06,20,14,30,26.70
2016,06,20,14,31,26.80
2016,06,20,14,32,26.80
2016,06,20,14,33,26.80
2016,06,20,14,34,26.80
2016,06,20,14,35,26.80
2016,06,20,14,36,26.80
2016,06,20,14,37,26.80
2016,06,20,14,38,26.90
2016,06,20,14,39,26.90
2016,06,20,14,40,26.90
2016,06,20,14,41,26.90
2016,06,20,14,42,26.90
2016,06,20,14,43,26.80
2016,06,20,14,44,26.80
2016,06,20,14,45,26.90
2016,06,20,14,46,26.90
2016,06,20,14,47,26.90
2016,06,20,14,48,26.90
2016,06,20,14,49,26.90
2016,06,20,14,50,26.90
2016,06,20,14,51,26.90
2016,06,20,14,52,26.90
2016,06,20,14,53,26.90
2016,06,20,14,54,26.80
2016,06,20,14,55,26.80
2016,06,20,14,56,26.80
2016,06,20,14,57,26.80
2016,06,20,14,58,26.90
2016,06,20,14,59,26.90
2016,06,20,15,00,26.90
2016,06,20,15,01,26.90
2016,06,20,15,02,26.90
2016,06,20,15,03,26.90
2016,06,20,15,04,26.90
2016,06,20,15,05,26.90
2016,06,20,15,06,27.00
2016,06,20,15,07,27.10
2016,06,20,15,08,27.10
2016,06,20,15,09,27.10
2016,06,20,15,10,27.10
2016,06,20,15,11,27.00
2016,06,20,15,12,27.00
2016,06,20,15,13,26.90
2016,06,20,15,14,26.80
2016,06,20,15,15,26.70
2016,06,20,15,16,26.60
2016,06,20,15,17,26.60
2016,06,20,15,18,26.60
2016,06,20,15,19,26.50
2016,06,20,15,20,26.60
2016,06,20,15,21,26.50
2016,06,20,15,22,26.60
2016,06,20,15,23,26.60
2016,06,20,15,24,26.50
2016,06,20,15,25,26.40
2016,06,20,15,26,26.50
2016,06,20,15,27,26.50
2016,06,20,15,28,26.50
2016,06,20,15,29,26.50
2016,06,20,15,30,26.50
2016,06,20,15,31,26.60
2016,06,20,15,32,26.60
2016,06,20,15,33,26.60
2016,06,20,15,34,26.60
2016,06,20,15,35,26.70
2016,06,20,15,36,26.70
2016,06,20,15,37,26.60
2016,06,20,15,38,26.60
2016,06,20,15,39,26.60
2016,06,20,15,40,26.60
2016,06,20,15,41,26.60
2016,06,20,15,42,26.60
2016,06,20,15,43,26.70
2016,06,20,15,44,26.70
2016,06,20,15,45,26.70
2016,06,20,15,46,26.80
2016,06,20,15,47,26.80
2016,06,20,15,48,26.80
2016,06,20,15,49,26.80
2016,06,20,15,50,26.70
2016,06,20,15,51,26.70
2016,06,20,15,52,26.70
2016,06,20,15,53,26.60
2016,06,20,15,54,26.60
2016,06,20,15,55,26.60
2016,06,20,15,56,26.60
2016,06,20,15,57,26.50
2016,06,20,15,58,26.40
2016,06,20,15,59,26.30
2016,06,20,16,00,26.30
2016,06,20,16,01,26.30
2016,06,20,16,02,26.30
2016,06,20,16,03,26.30
2016,06,20,16,04,26.30
2016,06,20,16,05,26.30
2016,06,20,16,06,26.20
2016,06,20,16,07,26.20
2016,06,20,16,08,26.10
2016,06,20,16,09,26.10
2016,06,20,16,10,26.10
2016,06,20,16,11,26.00
2016,06,20,16,12,25.90
2016,06,20,16,13,25.90
2016,06,20,16,14,25.90
2016,06,20,16,15,25.90
2016,06,20,16,16,25.90
2016,06,20,16,17,25.80
2016,06,20,16,18,25.80
2016,06,20,16,19,25.80
2016,06,20,16,20,25.70
2016,06,20,16,21,25.70
2016,06,20,16,22,25.60
2016,06,20,16,23,25.50
2016,06,20,16,24,25.40
2016,06,20,16,25,25.30
2016,06,20,16,26,25.20
2016,06,20,16,27,25.10
2016,06,20,16,28,25.00
2016,06,20,16,29,24.90
2016,06,20,16,30,24.80
2016,06,20,16,31,24.70
2016,06,20,16,32,24.70
2016,06,20,16,33,24.60
2016,06,20,16,34,24.60
2016,06,20,16,35,24.50
2016,06,20,16,36,24.50
2016,06,20,16,37,24.40
2016,06,20,16,38,24.40
2016,06,20,16,39,24.30
2016,06,20,16,40,24.30
2016,06,20,16,41,24.30
2016,06,20,16,42,24.20
2016,06,20,16,43,24.20
2016,06,20,16,44,24.10
2016,06,20,16,45,24.10
2016,06,20,16,46,23.90
2016,06,20,16,47,23.90
2016,06,20,16,48,23.80
2016,06,20,16,49,23.70
2016,06,20,16,50,23.60
2016,06,20,16,51,23.40
2016,06,20,16,52,23.40
2016,06,20,16,53,23.30
2016,06,20,16,54,23.30
2016,06,20,16,55,23.20
2016,06,20,16,56,23.20
2016,06,20,16,57,23.10
2016,06,20,16,58,23.10
2016,06,20,16,59,23.00
2016,06,20,17,00,22.90
2016,06,20,17,01,22.90
2016,06,20,17,02,22.80
2016,06,20,17,03,22.80
2016,06,20,17,04,22.70
2016,06,20,17,05,22.70
2016,06,20,17,06,22.60
2016,06,20,17,07,22.60
2016,06,20,17,08,22.40
2016,06,20,17,09,22.30
2016,06,20,17,10,22.20
2016,06,20,17,12,21.80
2016,06,20,17,13,21.60
2016,06,20,17,15,21.10
2016,06,20,17,16,20.80
2016,06,20,17,17,20.60
2016,06,20,17,18,20.30
2016,06,20,17,19,20.20
2016,06,20,17,20,20.00
2016,06,20,17,21,19.90
2016,06,20,17,22,19.80
2016,06,20,17,23,19.70
2016,06,20,17,24,19.60
2016,06,20,17,25,19.60
2016,06,20,17,26,19.60
2016,06,20,17,27,19.50
2016,06,20,17,28,19.50
2016,06,20,17,29,19.50
2016,06,20,17,30,19.50
2016,06,20,17,31,19.50
2016,06,20,17,32,19.50
2016,06,20,17,33,19.50
2016,06,20,17,34,19.50
2016,06,20,17,35,19.40
2016,06,20,17,36,19.40
2016,06,20,17,37,19.40
2016,06,20,17,38,19.40
2016,06,20,17,39,19.30
2016,06,20,17,40,19.30
2016,06,20,17,41,19.30
2016,06,20,17,42,19.20
2016,06,20,17,43,19.20
2016,06,20,17,44,19.20
2016,06,20,17,45,19.20
2016,06,20,17,46,19.20
2016,06,20,17,47,19.20
2016,06,20,17,48,19.20
2016,06,20,17,49,19.20
2016,06,20,17,50,19.10
2016,06,20,17,51,19.10
2016,06,20,17,52,19.00
2016,06,20,17,53,18.90
2016,06,20,17,54,18.90
2016,06,20,17,55,18.80
2016,06,20,17,56,18.80
2016,06,20,17,58,18.70
2016,06,20,17,59,18.70
2016,06,20,18,01,18.60
2016,06,20,18,02,18.60
2016,06,20,18,03,18.60
2016,06,20,18,04,18.50
2016,06,20,18,05,18.50
2016,06,20,18,06,18.40
2016,06,20,18,07,18.40
2016,06,20,18,08,18.40
2016,06,20,18,09,18.40
2016,06,20,18,10,18.40
2016,06,20,18,11,18.30
2016,06,20,18,12,18.30
2016,06,20,18,13,18.20
2016,06,20,18,14,18.20
2016,06,20,18,15,18.20
2016,06,20,18,16,18.10
2016,06,20,18,17,18.10
2016,06,20,18,18,18.10
2016,06,20,18,19,18.00
2016,06,20,18,20,18.00
2016,06,20,18,21,17.90
2016,06,20,18,22,17.90
2016,06,20,18,23,18.00
2016,06,20,18,24,18.00
2016,06,20,18,25,18.10
2016,06,20,18,26,18.10
2016,06,20,18,27,18.10
2016,06,20,18,28,18.10
2016,06,20,18,29,18.10
2016,06,20,18,30,18.20
2016,06,20,18,31,18.20
2016,06,20,18,32,18.20
2016,06,20,18,33,18.20
2016,06,20,18,34,18.20
2016,06,20,18,35,18.20
2016,06,20,18,36,18.20
2016,06,20,18,37,18.20
2016,06,20,18,38,18.20
2016,06,20,18,39,18.20
2016,06,20,18,40,18.20
2016,06,20,18,41,18.20
2016,06,20,18,42,18.20
2016,06,20,18,43,18.20
2016,06,20,18,44,18.30
2016,06,20,18,45,18.30
2016,06,20,18,46,18.30
2016,06,20,18,47,18.30
2016,06,20,18,48,18.30
2016,06,20,18,49,18.40
2016,06,20,18,50,18.40
2016,06,20,18,51,18.40
2016,06,20,18,52,18.40
2016,06,20,18,53,18.40
2016,06,20,18,54,18.40
2016,06,20,18,55,18.50
2016,06,20,18,56,18.50
2016,06,20,18,57,18.60
2016,06,20,18,58,18.60
2016,06,20,18,59,18.60
2016,06,20,19,00,18.60
2016,06,20,19,01,18.70
2016,06,20,19,02,18.70
2016,06,20,19,03,18.70
2016,06,20,19,04,18.70
2016,06,20,19,05,18.80
2016,06,20,19,06,18.80
2016,06,20,19,07,18.80
2016,06,20,19,08,18.90
2016,06,20,19,09,18.90
2016,06,20,19,10,18.90
2016,06,20,19,11,18.90
2016,06,20,19,12,18.90
2016,06,20,19,13,18.90
2016,06,20,19,14,19.00
2016,06,20,19,15,19.00
2016,06,20,19,16,19.00
2016,06,20,19,17,18.90
2016,06,20,19,18,18.90
2016,06,20,19,19,18.90
2016,06,20,19,20,18.90
2016,06,20,19,21,18.90
2016,06,20,19,24,18.90
2016,06,20,19,25,18.90
2016,06,20,19,26,18.90
2016,06,20,19,27,18.90
2016,06,20,19,28,18.90
2016,06,20,19,29,18.90
2016,06,20,19,30,18.90
2016,06,20,19,31,18.90
2016,06,20,19,32,18.90
2016,06,20,19,33,18.90
2016,06,20,19,34,18.90
2016,06,20,19,35,18.90
2016,06,20,19,36,18.90
2016,06,20,19,37,18.80
2016,06,20,19,38,18.80
2016,06,20,19,39,18.80
2016,06,20,19,40,18.80
2016,06,20,19,41,18.80
2016,06,20,19,42,18.80
2016,06,20,19,43,18.80
2016,06,20,19,44,18.90
2016,06,20,19,45,18.90
2016,06,20,19,46,18.90
2016,06,20,19,47,18.90
2016,06,20,19,48,18.90
2016,06,20,19,49,18.90
2016,06,20,19,50,18.90
2016,06,20,19,51,18.90
2016,06,20,19,52,18.90
2016,06,20,19,53,18.90
2016,06,20,19,54,18.90
2016,06,20,19,55,18.90
2016,06,20,19,56,18.90
2016,06,20,19,57,18.90
2016,06,20,19,58,18.90
2016,06,20,19,59,18.90
2016,06,20,20,00,18.90
2016,06,20,20,01,18.90
2016,06,20,20,02,19.00
2016,06,20,20,03,18.90
2016,06,20,20,04,19.00
2016,06,20,20,05,19.00
2016,06,20,20,06,19.00
2016,06,20,20,07,19.00
2016,06,20,20,08,19.00
2016,06,20,20,09,19.00
2016,06,20,20,10,19.00
2016,06,20,20,11,19.00
2016,06,20,20,12,18.90
2016,06,20,20,13,18.90
2016,06,20,20,14,18.90
2016,06,20,20,15,18.90
2016,06,20,20,16,18.90
2016,06,20,20,17,18.90
2016,06,20,20,18,18.90
2016,06,20,20,19,18.80
2016,06,20,20,20,18.80
2016,06,20,20,22,18.80
2016,06,20,20,23,18.70
2016,06,20,20,24,18.70
2016,06,20,20,25,18.70
2016,06,20,20,26,18.70
2016,06,20,20,27,18.60
2016,06,20,20,28,18.60
2016,06,20,20,29,18.60
2016,06,20,20,30,18.60
2016,06,20,20,31,18.60
2016,06,20,20,32,18.50
2016,06,20,20,33,18.50
2016,06,20,20,34,18.40
2016,06,20,20,35,18.40
2016,06,20,20,36,18.40
2016,06,20,20,37,18.40
2016,06,20,20,38,18.30
2016,06,20,20,39,18.30
2016,06,20,20,40,18.30
2016,06,20,20,41,18.30
2016,06,20,20,42,18.30
2016,06,20,20,43,18.30
2016,06,20,20,44,18.30
2016,06,20,20,45,18.30
2016,06,20,20,46,18.30
2016,06,20,20,47,18.30
2016,06,20,20,48,18.30
2016,06,20,20,49,18.30
2016,06,20,20,50,18.30
2016,06,20,20,51,18.30
2016,06,20,20,52,18.30
2016,06,20,20,53,18.30
2016,06,20,20,54,18.30
2016,06,20,20,55,18.20
2016,06,20,20,56,18.20
2016,06,20,20,57,18.20
2016,06,20,20,58,18.20
2016,06,20,20,59,18.20
2016,06,20,21,00,18.20
2016,06,20,21,01,18.20
2016,06,20,21,02,18.20
2016,06,20,21,03,18.20
2016,06,20,21,04,18.10
2016,06,20,21,05,18.10
2016,06,20,21,06,18.10
2016,06,20,21,07,18.20
2016,06,20,21,08,18.20
2016,06,20,21,09,18.20
2016,06,20,21,10,18.20
2016,06,20,21,11,18.20
2016,06,20,21,12,18.20
2016,06,20,21,13,18.20
2016,06,20,21,14,18.20
2016,06,20,21,15,18.20
2016,06,20,21,16,18.20
2016,06,20,21,17,18.20
2016,06,20,21,18,18.20
2016,06,20,21,19,18.20
2016,06,20,21,20,18.20
2016,06,20,21,21,18.20
2016,06,20,21,22,18.20
2016,06,20,21,23,18.30
2016,06,20,21,24,18.30
2016,06,20,21,25,18.30
2016,06,20,21,26,18.30
2016,06,20,21,27,18.30
2016,06,20,21,28,18.30
2016,06,20,21,29,18.30
2016,06,20,21,30,18.30
2016,06,20,21,31,18.30
2016,06,20,21,32,18.30
2016,06,20,21,33,18.30
2016,06,20,21,34,18.20
2016,06,20,21,35,18.20
2016,06,20,21,36,18.20
2016,06,20,21,37,18.20
2016,06,20,21,38,18.10
2016,06,20,21,40,18.10
2016,06,20,21,41,18.10
2016,06,20,21,42,18.10
2016,06,20,21,43,18.00
2016,06,20,21,44,18.00
2016,06,20,21,45,17.90
2016,06,20,21,46,17.90
2016,06,20,21,47,17.90
2016,06,20,21,48,17.90
2016,06,20,21,49,17.90
2016,06,20,21,50,17.80
2016,06,20,21,54,17.80
2016,06,20,21,55,17.80
2016,06,20,21,56,17.80
2016,06,20,21,57,17.80
2016,06,20,21,58,17.80
2016,06,20,21,59,17.80
2016,06,20,22,00,17.80
2016,06,20,22,04,17.70
2016,06,20,22,05,17.70
2016,06,20,22,06,17.70
2016,06,20,22,07,17.70
2016,06,20,22,08,17.60
2016,06,20,22,09,17.60
2016,06,20,22,10,17.60
2016,06,20,22,11,17.60
2016,06,20,22,12,17.60
2016,06,20,22,13,17.60
2016,06,20,22,14,17.60
2016,06,20,22,15,17.60
2016,06,20,22,16,17.50
2016,06,20,22,17,17.50
2016,06,20,22,18,17.50
2016,06,20,22,19,17.50
2016,06,20,22,20,17.40
2016,06,20,22,21,17.40
2016,06,20,22,22,17.40
2016,06,20,22,23,17.40
2016,06,20,22,24,17.40
2016,06,20,22,25,17.40
2016,06,20,22,26,17.40
2016,06,20,22,27,17.40
2016,06,20,22,28,17.40
2016,06,20,22,29,17.40
2016,06,20,22,30,17.30
2016,06,20,22,31,17.30
2016,06,20,22,32,17.30
2016,06,20,22,33,17.30
2016,06,20,22,34,17.30
2016,06,20,22,35,17.30
2016,06,20,22,36,17.30
2016,06,20,22,37,17.20
2016,06,20,22,38,17.20
2016,06,20,22,39,17.20
2016,06,20,22,40,17.20
2016,06,20,22,41,17.20
2016,06,20,22,42,17.20
2016,06,20,22,43,17.20
2016,06,20,22,44,17.10
2016,06,20,22,45,17.10
2016,06,20,22,46,17.10
2016,06,20,22,47,17.10
2016,06,20,22,48,17.10
2016,06,20,22,49,17.10
2016,06,20,22,50,17.10
2016,06,20,22,51,17.10
2016,06,20,22,52,17.10
2016,06,20,22,53,17.00
2016,06,20,22,54,17.00
2016,06,20,22,55,17.00
2016,06,20,22,56,17.00
2016,06,20,22,57,17.00
2016,06,20,22,58,16.90
2016,06,20,22,59,16.90
2016,06,20,23,00,16.90
2016,06,20,23,01,16.90
2016,06,20,23,04,16.90
2016,06,20,23,05,16.80
2016,06,20,23,06,16.80
2016,06,20,23,07,16.80
2016,06,20,23,08,16.80
2016,06,20,23,09,16.80
2016,06,20,23,10,16.80
2016,06,20,23,11,16.80
2016,06,20,23,12,16.80
2016,06,20,23,13,16.70
2016,06,20,23,14,16.70
2016,06,20,23,15,16.70
2016,06,20,23,16,16.70
2016,06,20,23,17,16.70
2016,06,20,23,18,16.60
2016,06,20,23,19,16.60
2016,06,20,23,20,16.60
2016,06,20,23,21,16.60
2016,06,20,23,22,16.50
2016,06,20,23,23,16.40
2016,06,20,23,24,16.40
2016,06,20,23,25,16.40
2016,06,20,23,26,16.40
2016,06,20,23,27,16.30
2016,06,20,23,28,16.30
2016,06,20,23,29,16.30
2016,06,20,23,30,16.30
2016,06,20,23,31,16.30
2016,06,20,23,32,16.30
2016,06,20,23,33,16.20
2016,06,20,23,34,16.20
2016,06,20,23,35,16.20
2016,06,20,23,36,16.20
2016,06,20,23,37,16.20
2016,06,20,23,38,16.20
2016,06,20,23,39,16.20
2016,06,20,23,40,16.20
2016,06,20,23,41,16.30
2016,06,20,23,42,16.30
2016,06,20,23,43,16.30
2016,06,20,23,44,16.30
2016,06,20,23,45,16.40
2016,06,20,23,46,16.40
2016,06,20,23,47,16.40
2016,06,20,23,48,16.40
2016,06,20,23,49,16.40
2016,06,20,23,50,16.40
2016,06,20,23,51,16.30
2016,06,20,23,52,16.30
2016,06,20,23,53,16.30
2016,06,20,23,54,16.20
2016,06,20,23,55,16.20
2016,06,20,23,56,16.20
2016,06,20,23,59,16.10
